{"data":{"norad_id":53675,"epoch":"2026-09-20T22:49:52.775328Z","epoch_age_seconds":42137,"freshness":"FRESH","line1":"1 53675U 22105AD  26263.95130527  .00000507  00000+0  18043-4 0  9998","line2":"2 53675  97.2843 140.7329 0001720  90.6249 269.5191 15.33435697222811","mean_motion":15.33435697,"eccentricity":0.000172,"inclination_deg":97.2843,"raan_deg":140.7329,"arg_perigee_deg":90.6249,"mean_anomaly_deg":269.5191,"bstar":1.8043e-5,"rev_number":22281,"period_min":93.906774364077,"perigee_km":464.39373605,"apogee_km":466.7479715517,"semimajor_km":6843.7078538008,"source":"CELESTRAK","updated_at":"2026-09-21T09:00:32.977467Z"}}